This demonstration page uses our WeatherBlox Daily Observations layout. Learn more.

Left ArrowRight Arrow

39.29038, -76.61219

Hourly Observations for January 3, 2017

Temp ( °F °C ) Dew Point ( °F °C ) Humidity (%) Winds ( mph kmh ) Pressure ( in mb ) Visibility ( mi km ) Precip ( " mm )
12:54 am 00:54 undefined 44 6.7 40 4.4 85 85 undefined N/A 30.15 1021 N/A 0.00 0.00
1:54 am 01:54 undefined 43 6.1 40 4.4 89 89 undefined N/A 30.12 1020 N/A 0.01 0.25
2:54 am 02:54 undefined 43 6.1 40 4.4 89 89 undefined N/A 30.11 1020 N/A 0.00 0.00
3:54 am 03:54 undefined 43 6.1 40 4.4 89 89 undefined N/A 30.10 1019 N/A 0.01 0.25
4:54 am 04:54 undefined 43 6.1 40 4.4 89 89 undefined N/A 30.05 1018 N/A 0.02 0.51
5:54 am 05:54 undefined 43 6.1 40 4.4 89 89 undefined N/A 30.01 1016 N/A 0.01 0.25
6:54 am 06:54 undefined 43 6.1 40 4.4 89 89 undefined N/A 29.99 1016 N/A 0.04 1.02
7:54 am 07:54 undefined 43 6.1 40 4.4 89 89 undefined N/A 29.95 1014 N/A 0.06 1.52
8:54 am 08:54 undefined 43 6.1 40 4.4 89 89 undefined N/A 29.91 1013 N/A 0.11 2.79
9:54 am 09:54 undefined 43 6.1 40 4.4 89 89 undefined N/A 29.88 1012 N/A 0.06 1.52
10:54 am 10:54 undefined 44 6.7 40 4.4 85 85 undefined N/A 29.82 1010 N/A 0.11 2.79
11:54 am 11:54 undefined 45 7.2 42 5.6 90 90 undefined N/A 29.82 1010 N/A 0.26 6.60
12:54 pm 12:54 undefined 45 7.2 41 5 86 86 undefined N/A 29.77 1008 N/A 0.10 2.54
1:54 pm 13:54 undefined 46 7.8 42 5.6 86 86 undefined N/A 29.69 1006 N/A 0.12 3.05
2:54 pm 14:54 undefined 47 8.3 42 5.6 83 83 undefined N/A 29.67 1005 N/A 0.00 0.00
3:54 pm 15:54 undefined 47 8.3 43 6.1 86 86 undefined N/A 29.65 1004 N/A 0.00 0.00
4:54 pm 16:54 undefined 47 8.3 43 6.1 86 86 undefined N/A 29.62 1003 N/A 0.00 0.00
5:54 pm 17:54 undefined 47 8.3 43 6.1 86 86 undefined N/A 29.60 1002 N/A 0.00 0.00
6:54 pm 18:54 undefined 47 8.3 42 5.6 83 83 undefined N/A 29.60 1002 N/A 0.00 0.00
7:54 pm 19:54 undefined 47 8.3 42 5.6 83 83 undefined N/A 29.59 1002 N/A 0.00 0.00
8:54 pm 20:54 undefined 46 7.8 42 5.6 86 86 undefined N/A 29.58 1002 N/A 0.00 0.00
9:54 pm 21:54 undefined 46 7.8 41 5 83 83 undefined N/A 29.58 1002 N/A 0.00 0.00
10:54 pm 22:54 undefined 46 7.8 41 5 83 83 undefined N/A 29.57 1001 N/A 0.00 0.00
11:54 pm 23:54 undefined 46 7.8 41 5 83 83 undefined N/A 29.56 1001 N/A 0.00 0.00

Powered by AerisWeather